This is the latest recevied weather packets stored in our database for station/object W8CWV-13. If no packets are shown the sender has not sent any weather packets the latest 10 day(s).
| Time | Temp. | Humidity | Pressure | Rain* | Wind** | Luminosity | Snow |
|---|---|---|---|---|---|---|---|
| 1777539263 | 11.11° C | 100% | 1004.3 hPa | - | - | - | - |
| 1777538694 | 11.11° C | 100% | 1003.9 hPa | - | - | - | - |
| 1777538117 | 10.56° C | 100% | 1003.2 hPa | - | - | - | - |
| 1777537550 | 10.56° C | 100% | 1004.3 hPa | - | - | - | - |
| 1777536980 | 10.56° C | 100% | 1005.7 hPa | - | - | - | - |
| 1777536404 | 11.11° C | 100% | 1006.3 hPa | - | - | - | - |
| 1777535828 | 11.67° C | 100% | 1005.6 hPa | - | - | - | - |
| 1777535258 | 11.11° C | 100% | 1003.3 hPa | - | - | - | - |
| 1777534687 | 11.67° C | 100% | 999.3 hPa | - | - | - | - |
| 1777534109 | 12.22° C | 100% | 994.9 hPa | - | - | - | - |
| 1777533539 | 12.22° C | 100% | 993 hPa | - | - | - | - |
| 1777532962 | 11.67° C | 100% | 993.2 hPa | - | - | - | - |
| 1777532389 | 11.67° C | 100% | 1001.4 hPa | - | - | - | - |
| 1777531817 | 12.22° C | 100% | 1011.8 hPa | - | - | - | - |
| 1777531246 | 12.22° C | 100% | 1014.7 hPa | - | - | - | - |
| 1777530674 | 12.22° C | 100% | 1015 hPa | - | - | - | - |
| 1777530099 | 11.67° C | 100% | 1015.2 hPa | - | - | - | - |
| 1777529532 | 11.67° C | 100% | 1015.4 hPa | - | - | - | - |
| 1777528955 | 11.11° C | 100% | 1015.5 hPa | - | - | - | - |
| 1777528381 | 11.11° C | 100% | 1015.3 hPa | - | - | - | - |
| 1777527808 | 11.11° C | 100% | 1015.3 hPa | - | - | - | - |
| 1777527237 | 11.67° C | 100% | 1015.1 hPa | - | - | - | - |
| 1777526659 | 11.67° C | 100% | 1015 hPa | - | - | - | - |
| 1777526089 | 11.67° C | 100% | 1015 hPa | - | - | - | - |
| 1777525512 | 12.22° C | 100% | 1014.9 hPa | - | - | - | - |
* Rain since midnight (hover to see other rain measurements)
** Current wind speed in m/s (hover to see current wind gust speed)